Flag for Germany Weather past 2 weeks in Herten, North Rhine-Westphalia, Germany

Now
57 °F

Overcast.


Feels Like: 58 °F
Forecast: 43 / 57 °F
Wind: 3 mph from Southwest

Location: Essen

Current Time: Oct 20, 2014 at 8:35:33 PM

Latest Report: Oct 20, 2014 at 8:00 PM


Visibility: 22 mi

Pressure: 29.97 "Hg

Humidity: 82%

Dew point: 52 °F

Location of HertenLocation

Historic Weather in Herten — Graph

°F

Herten temperature yesterday

Maximum temperature yesterday: 73 °F (at 3:00 PM)
Minimum temperature yesterday: 60 °F (at 8:00 AM)
Average temperature yesterday: 65 °F

Past Weeks' High & Low Weather Summary

 TemperatureHumidityPressure
High73 °F (Oct 19, 3:00 PM)100% (Oct 6, 4:00 AM)30.10 "Hg (Oct 6, 4:00 AM)
Low49 °F (Oct 8, 4:00 AM)55% (Oct 14, 2:00 PM)29.50 "Hg (Oct 7, 9:00 AM)
Average58 °F85%29.83 "Hg
* Reported Oct 5 7:00 PM — Oct 20 7:00 PM, Herten, Weather by CustomWeather, © 2014

Note: Actual official high and low records may vary slightly from our data, if they occured in-between our weather recording intervals... More about our weather records

Advertising

Herten weather history for previous 24 hours

 ConditionsComfort  
Time TempWeatherWind HumidityBarometerVisibility
7:00 PM
Oct 20
57 °FClear.3 mph81%29.97 "Hg25 mi
6:00 PM59 °FOvercast.5 mph75%29.97 "Hg31 mi
5:00 PM60 °FPassing clouds.5 mph73%29.98 "Hg25 mi
4:00 PM61 °FPassing clouds.6 mph72%30.00 "Hg14 mi
3:00 PM61 °FOvercast.6 mph74%30.01 "Hg22 mi
2:00 PM59 °FOvercast.6 mph76%30.03 "Hg28 mi
1:00 PM60 °FOvercast.5 mph79%30.03 "Hg19 mi
12:00 PM57 °FOvercast.6 mph86%30.04 "Hg19 mi
11:00 AM57 °FOvercast.5 mph88%30.04 "Hg18 mi
10:00 AM56 °FOvercast.5 mph88%30.04 "Hg17 mi
9:00 AM56 °FOvercast.6 mph89%30.03 "Hg16 mi
8:00 AM56 °FOvercast.5 mph90%30.02 "Hg19 mi
7:00 AM56 °FOvercast.6 mph90%30.01 "Hg19 mi
5:00 AM57 °FOvercast.3 mph88%30.01 "Hg22 mi
4:00 AM57 °FOvercast.5 mph87%30.02 "Hg28 mi
3:00 AM58 °FPassing clouds.6 mph84%30.02 "Hg28 mi
2:00 AM58 °FOvercast.6 mph82%30.02 "Hg31 mi
1:00 AM59 °FOvercast.5 mph79%30.03 "Hg34 mi
12:00 AM60 °FOvercast.6 mph76%30.02 "Hg37 mi
11:00 PM
Oct 19
62 °FOvercast.6 mph77%30.00 "Hg43 mi
10:00 PM63 °FOvercast.6 mph85%29.98 "Hg25 mi
9:00 PM63 °FOvercast.6 mph94%29.97 "Hg9 mi
8:00 PM67 °FLight rain. Overcast.6 mph76%29.95 "Hg22 mi
Weather by CustomWeather, © 2014

See weather overviewHow to use our weather pages